Wind_Speed
4 3 8 4 2 3 1 1 5 9 7 11 25 4 5 8 2 4 22 18 22 19 19 17 15 15 16 16 16 17 16 17 17 19 20 20 20 20 18 17 16 16 15 15 16 17 18 18 18
2 4 3 2 3 5 3 4 14 5 11 27 12 14 10 4 10 25 25 22 21 20 18 17 15 15 15 15 16 17 16 18 20 19 19 18 18 17 17 16 15 14 16 17 18 18 15 15 15
1 3 1 2 1 3 3 3 11 15 21 11 6 13 5 3 20 30 25 25 22 19 18 16 15 14 15 15 15 16 18 20 18 19 19 18 16 16 14 14 14 15 16 16 17 18 17 16 16
2 2 5 4 4 4 4 9 16 14 15 8 18 9 12 18 22 22 27 24 21 18 17 16 15 14 14 14 14 16 16 18 17 18 18 18 17 16 14 15 14 14 15 14 15 16 17 15 16
7 7 4 3 3 3 7 7 15 8 6 16 13 7 7 14 14 26 26 22 18 17 16 14 15 14 16 16 15 16 16 17 17 17 16 15 14 14 14 14 15 14 14 16 16 13 14 15 14
6 4 3 2 3 3 5 11 10 14 15 17 16 12 4 17 23 27 23 20 16 15 15 15 15 14 16 15 16 17 17 18 16 17 15 14 14 14 13 14 16 15 14 16 15 13 14 14 15
5 2 1 1 5 3 3 14 15 11 14 10 18 5 15 28 23 25 20 18 17 16 16 16 16 16 17 16 16 19 17 16 16 15 15 14 14 14 14 15 16 16 16 18 16 15 12 11 12
2 3 1 3 5 3 4 1 17 20 5 18 26 5 13 29 24 24 17 17 16 16 15 16 16 17 17 17 17 18 18 17 16 15 15 15 16 16 16 16 16 16 16 18 17 13 10 9 10
5 3 3 2 2 1 3 6 14 9 20 14 3 26 31 30 27 23 21 21 19 17 15 15 15 16 17 17 17 18 17 16 16 16 16 19 18 16 17 17 18 17 15 16 16 14 10 8 7
5 3 7 6 3 2 4 3 15 12 17 17 23 26 33 31 31 27 25 23 20 19 18 14 15 16 18 18 18 16 16 14 15 16 19 19 17 17 18 20 20 19 17 17 16 12 9 6 3
6 2 6 15 12 12 5 6 16 24 8 26 30 34 33 30 23 24 20 16 18 18 17 16 16 16 17 17 17 16 17 17 17 18 19 18 18 19 19 16 17 16 14 13 11 9 7 5 3
4 2 11 11 16 10 7 4 10 9 7 31 33 38 35 30 27 24 20 18 20 17 16 18 16 15 15 15 15 16 15 17 18 17 17 18 19 18 14 10 12 10 9 12 11 9 7 5 4
5 3 7 4 16 10 11 9 3 6 12 27 35 38 34 32 27 21 17 20 21 20 18 18 17 14 13 15 16 14 17 17 15 15 17 17 15 12 11 7 9 10 11 10 8 10 8 6 6
4 11 10 14 9 9 9 6 6 8 15 31 37 36 34 32 27 23 22 22 21 20 19 17 15 12 12 13 11 11 18 16 17 18 17 14 12 8 11 10 9 6 7 5 6 8 6 7 6
13 8 9 12 4 4 15 5 5 10 13 34 35 33 34 31 30 26 22 19 22 19 17 15 13 11 10 10 11 18 19 20 17 16 12 11 11 9 11 11 8 9 6 5 5 3 2 6 6
3 4 3 6 10 1 7 4 10 18 20 29 33 30 33 32 31 27 23 23 25 22 19 13 10 12 13 15 13 16 17 17 16 15 13 10 9 8 7 7 8 7 5 3 3 3 6 7 6
6 3 6 2 7 7 5 2 3 9 25 29 30 29 36 29 31 28 24 27 27 21 20 16 12 16 15 15 16 16 15 15 14 12 12 10 11 8 5 9 8 6 5 6 6 6 7 8 6
4 4 6 3 3 8 7 5 2 7 8 20 18 30 33 33 37 31 27 27 26 21 22 19 16 15 18 17 16 16 16 15 12 11 11 9 7 6 5 7 3 2 2 2 4 5 6 5 4
6 6 9 4 1 4 5 3 6 6 12 9 1 22 35 38 39 33 30 29 27 23 23 22 20 19 20 16 16 17 16 14 11 6 8 11 11 9 8 6 4 3 1 3 4 4 10 5 1
7 10 5 3 9 1 6 7 6 6 6 7 6 17 32 33 35 37 35 32 29 25 22 22 25 21 18 17 16 15 15 13 10 7 10 12 12 4 6 7 7 5 5 4 5 6 9 3 4
2 5 7 5 7 1 2 4 5 6 14 16 13 11 28 41 42 40 39 36 32 29 25 21 20 25 22 18 18 16 14 13 13 13 9 12 11 6 6 5 7 8 7 8 5 5 5 4 5
3 3 12 15 13 3 3 3 5 6 7 8 15 9 28 32 43 43 43 40 35 30 27 22 21 21 20 21 17 16 16 14 12 12 11 10 14 9 6 5 6 10 8 9 8 5 4 4 5
4 7 5 4 5 1 4 1 3 7 7 11 14 16 25 38 39 46 44 41 33 31 30 23 22 23 23 22 20 17 15 13 11 11 13 12 12 12 11 7 8 10 11 10 9 4 3 2 2
15 8 7 4 4 2 4 5 3 4 7 12 15 17 18 38 40 45 43 39 33 32 30 25 26 22 22 22 21 19 16 14 14 14 13 14 11 11 10 7 9 11 12 10 11 6 3 5 5
5 3 3 4 1 5 6 6 8 11 11 12 14 19 22 30 40 39 41 40 35 33 33 28 29 24 23 23 22 21 19 18 15 15 13 14 13 13 11 10 7 9 12 10 10 10 7 3 6
10 6 5 6 4 2 1 5 6 4 21 28 28 32 28 24 35 44 44 40 37 33 33 31 30 29 25 26 23 20 19 20 18 14 14 14 13 13 12 11 8 8 12 12 12 10 11 9 6
6 4 4 6 2 2 3 6 8 11 14 16 27 33 37 29 36 42 45 41 38 36 31 32 29 28 26 28 26 22 19 19 19 15 16 14 12 13 14 12 11 10 11 13 12 13 11 11 10
6 8 3 2 4 4 4 5 6 3 6 7 15 32 38 38 27 32 40 43 38 36 32 31 28 24 23 26 26 23 20 18 18 19 18 16 14 15 15 14 15 13 12 14 14 12 12 13 10
2 2 5 4 4 4 2 5 5 4 10 15 18 28 36 43 33 27 34 38 39 39 36 33 30 27 24 24 25 24 22 20 20 18 16 16 16 13 10 14 14 14 14 15 14 11 11 12 14
4 2 3 5 3 1 2 4 13 2 9 15 20 25 35 40 43 29 34 31 31 39 40 36 33 31 26 23 23 24 22 22 22 20 18 16 15 15 15 14 14 14 12 14 15 12 12 13 14
Wind_Direction
63 21 343 329 33 81 22 36 122 118 146 169 163 138 143 64 131 177 143 154 156 150 143 138 138 132 129 127 126 126 126 125 127 123 119 122 125 123 120 119 117 117 117 120 115 115 108 110 105
41 4 339 307 65 78 352 355 128 138 140 130 108 108 55 59 114 135 146 152 156 150 146 141 140 138 134 132 131 130 128 134 131 127 126 125 124 123 123 121 119 118 119 114 116 113 120 114 105
100 359 50 67 74 80 135 46 118 112 124 123 103 72 67 75 133 139 145 150 154 152 151 148 149 144 140 136 135 134 131 131 134 128 128 127 127 125 126 125 122 118 122 118 113 115 107 107 105
230 49 63 50 29 311 122 142 124 114 94 85 103 73 69 133 132 143 146 150 153 153 153 154 152 148 147 141 141 139 137 138 132 130 127 125 120 121 119 119 118 118 124 126 115 108 107 101 91
66 48 38 22 14 8 104 144 123 99 74 105 102 103 87 166 152 147 147 148 154 151 149 152 154 153 153 149 149 146 140 138 133 132 133 130 130 119 116 114 117 121 121 118 115 105 97 97 100
55 68 61 41 33 44 89 144 104 89 106 107 105 103 91 157 151 152 148 149 155 153 155 156 154 157 155 152 149 148 143 139 138 134 132 128 121 121 120 118 118 121 125 126 118 107 96 90 90
105 87 76 309 98 65 101 96 107 110 112 108 129 92 141 152 148 148 153 154 155 154 156 158 159 158 154 154 154 150 143 140 139 132 121 120 121 117 117 117 119 122 128 136 128 121 108 94 82
92 109 38 37 184 200 264 242 144 139 75 131 120 155 158 156 152 153 159 156 154 154 153 158 159 156 154 156 154 153 149 145 140 131 126 120 118 117 115 117 119 122 128 138 135 130 118 95 80
213 113 174 226 304 174 202 161 147 128 139 137 248 158 156 155 154 149 153 154 154 150 149 152 155 158 156 156 150 150 145 141 141 137 126 122 120 116 115 113 115 119 121 136 144 134 126 107 82
186 149 201 163 122 117 264 183 124 132 148 117 112 146 154 158 159 154 155 154 153 149 151 151 157 159 154 159 151 142 144 152 144 133 129 128 122 120 117 114 116 122 122 126 135 136 135 127 86
190 220 149 173 173 186 182 111 147 149 157 151 145 150 163 164 166 162 161 155 153 145 150 152 154 158 158 161 155 158 158 163 149 133 135 131 125 129 124 121 119 122 125 130 133 131 126 126 117
180 249 157 179 191 198 182 128 131 152 181 166 162 165 170 170 174 171 168 167 159 148 140 146 149 153 156 162 159 159 150 152 148 142 140 137 133 129 123 126 126 123 120 127 126 121 120 138 170
165 131 57 99 182 172 136 81 80 174 154 170 165 170 177 180 177 172 170 159 158 155 150 141 138 137 146 154 153 161 159 151 153 149 146 148 146 131 127 126 133 136 137 134 116 115 100 103 102
113 97 82 51 95 141 111 92 358 208 158 170 170 175 179 180 177 174 173 166 161 161 153 150 148 135 139 161 169 172 172 165 156 148 144 146 152 140 130 127 131 130 134 134 117 117 109 103 91
129 103 71 32 44 98 116 92 216 245 191 171 172 177 179 189 176 180 175 171 162 163 160 160 157 158 154 136 123 140 146 150 161 156 159 160 149 132 126 123 126 136 129 145 129 80 108 129 104
34 79 104 22 5 35 342 166 227 228 182 180 178 178 180 189 184 179 183 172 162 165 167 166 183 172 157 155 130 138 145 147 160 158 160 159 145 146 142 129 139 123 126 128 49 107 143 154 144
7 119 103 127 41 27 359 122 20 286 187 186 179 176 186 183 188 186 183 173 170 167 170 172 170 166 157 158 153 139 134 137 154 163 166 159 164 155 158 145 128 106 95 81 79 98 134 126 128
169 133 94 118 321 40 334 126 48 29 166 194 186 173 177 179 187 187 181 175 175 174 174 172 174 167 165 160 163 163 159 146 144 164 180 183 178 190 172 146 116 96 102 100 103 95 138 149 153
140 130 115 100 214 86 301 279 293 48 272 180 241 176 167 180 185 186 181 177 177 178 183 184 186 174 170 181 177 168 160 158 155 159 174 194 200 193 183 179 184 182 223 179 137 114 130 133 233
151 123 82 99 159 164 210 271 290 278 278 263 262 185 172 172 184 188 184 180 180 175 175 185 192 190 186 189 183 180 172 167 174 185 175 196 201 191 179 192 185 195 227 186 145 131 161 122 125
115 167 169 171 182 306 119 262 199 239 229 250 239 207 181 181 183 187 186 184 182 180 174 172 171 187 189 199 188 187 191 190 192 193 201 203 210 194 188 197 200 200 207 215 177 155 137 167 159
224 217 169 159 151 216 195 278 191 186 227 214 225 210 189 184 187 186 186 187 187 187 178 176 179 192 198 198 194 199 206 202 202 199 188 196 205 207 201 205 207 209 216 210 191 179 177 177 187
168 101 152 152 104 130 171 285 253 146 228 233 228 210 181 184 183 184 188 189 190 191 184 183 182 187 196 197 202 203 203 205 202 197 200 202 209 219 214 208 210 208 202 192 192 171 143 138 205
124 98 89 83 91 358 181 184 259 197 209 207 217 211 186 182 184 189 192 190 191 191 188 190 188 194 200 202 204 206 210 216 208 205 200 204 213 217 214 202 202 206 205 200 201 205 156 170 136
91 107 51 42 15 227 196 176 230 197 182 175 198 213 193 184 185 187 191 192 192 191 193 195 198 201 202 207 212 214 206 206 220 217 213 214 218 224 225 221 218 207 201 218 217 226 227 189 189
165 184 146 167 212 185 39 230 249 235 199 182 196 212 202 184 184 192 194 196 196 193 195 199 204 210 211 207 214 217 218 219 218 221 216 218 226 220 224 221 213 211 214 223 222 227 229 220 213
213 208 168 106 7 76 220 280 288 186 185 206 209 188 182 187 182 195 198 201 199 198 197 201 207 212 217 207 213 218 215 215 221 223 225 223 220 220 221 217 212 220 223 223 224 229 230 222 226
160 161 86 352 141 233 270 280 244 163 201 199 186 181 172 181 175 188 200 206 206 206 203 203 207 209 214 214 214 216 219 219 219 230 232 231 222 231 226 240 229 234 239 222 221 231 237 229 227
121 250 55 110 126 156 256 261 251 210 170 177 186 182 174 178 180 193 204 208 210 211 209 208 208 210 216 218 219 219 222 225 224 225 227 230 232 226 243 227 234 240 237 223 222 226 239 235 234
126 98 148 123 219 177 204 275 341 261 166 167 175 181 180 181 184 200 203 205 209 216 215 213 214 213 217 220 221 224 223 223 219 224 227 233 230 226 232 231 227 232 231 223 234 233 244 244 238
Height
1505 1505 1505 1506 1511 1510 1510 1505 1499 1505 1509 1508 1515 1515 1520 1519 1522 1537 1530 1535 1537 1539 1542 1544 1545 1546 1548 1549 1550 1550 1551 1551 1552 1553 1554 1555 1556 1557 1557 1557 1558 1558 1560 1559 1559 1560 1561 1562 1562
1504 1505 1504 1504 1513 1518 1517 1500 1504 1503 1505 1508 1514 1516 1518 1525 1523 1525 1531 1535 1539 1541 1543 1546 1548 1549 1550 1551 1552 1553 1553 1554 1555 1556 1557 1558 1559 1560 1560 1560 1561 1561 1560 1562 1563 1564 1564 1565 1565
1504 1505 1505 1507 1513 1519 1518 1505 1502 1506 1508 1510 1516 1518 1523 1528 1527 1529 1533 1536 1540 1543 1545 1548 1550 1551 1552 1553 1555 1555 1556 1557 1558 1559 1560 1560 1562 1562 1563 1563 1563 1563 1564 1566 1567 1567 1568 1567 1568
1504 1504 1506 1514 1515 1507 1505 1505 1504 1504 1510 1511 1516 1523 1528 1531 1532 1533 1536 1539 1542 1545 1547 1549 1551 1553 1554 1555 1556 1557 1558 1559 1561 1562 1563 1563 1564 1564 1565 1565 1566 1567 1568 1570 1571 1571 1571 1571 1571
1503 1505 1516 1520 1514 1508 1506 1509 1506 1507 1510 1515 1518 1528 1531 1536 1536 1537 1539 1542 1544 1546 1548 1550 1553 1554 1555 1556 1557 1559 1560 1562 1563 1564 1565 1565 1566 1567 1567 1568 1568 1570 1571 1573 1574 1575 1575 1575 1575
1509 1514 1524 1524 1518 1512 1510 1513 1512 1512 1515 1519 1524 1527 1535 1537 1538 1540 1543 1545 1547 1548 1550 1552 1553 1554 1556 1557 1559 1561 1562 1564 1564 1566 1567 1568 1569 1570 1570 1570 1571 1572 1574 1575 1576 1577 1578 1579 1579
1511 1516 1524 1523 1520 1515 1514 1514 1517 1520 1519 1522 1524 1531 1537 1540 1542 1544 1547 1548 1549 1551 1552 1552 1553 1555 1557 1559 1561 1562 1564 1566 1568 1569 1570 1571 1572 1572 1572 1573 1573 1574 1575 1577 1578 1579 1580 1581 1582
1511 1514 1521 1521 1523 1524 1516 1516 1513 1519 1522 1524 1526 1533 1537 1540 1544 1547 1549 1551 1552 1552 1553 1554 1555 1557 1558 1561 1562 1564 1566 1568 1569 1571 1572 1573 1574 1575 1575 1576 1576 1576 1578 1580 1581 1583 1584 1584 1585
1512 1518 1525 1523 1523 1520 1517 1516 1518 1519 1523 1526 1526 1528 1535 1540 1545 1548 1550 1552 1552 1553 1554 1555 1557 1558 1561 1562 1565 1566 1569 1571 1573 1573 1574 1576 1576 1578 1579 1579 1579 1580 1581 1582 1584 1586 1587 1587 1587
1512 1520 1517 1516 1517 1519 1518 1516 1517 1522 1526 1528 1529 1534 1538 1542 1544 1547 1549 1551 1553 1553 1554 1556 1559 1560 1563 1564 1566 1568 1570 1571 1573 1575 1577 1578 1579 1580 1582 1582 1582 1583 1584 1585 1586 1588 1589 1589 1589
1509 1511 1508 1513 1517 1521 1517 1517 1520 1523 1528 1526 1528 1534 1539 1544 1548 1548 1551 1553 1553 1554 1555 1558 1560 1562 1564 1565 1568 1570 1572 1573 1575 1578 1579 1580 1581 1583 1583 1585 1585 1586 1587 1588 1589 1589 1590 1591 1591
1509 1505 1507 1508 1515 1520 1520 1519 1521 1524 1527 1527 1529 1533 1539 1543 1546 1549 1552 1554 1555 1556 1559 1560 1562 1563 1566 1567 1569 1571 1573 1575 1578 1580 1581 1583 1583 1585 1586 1587 1588 1588 1588 1588 1589 1590 1591 1592 1592
1505 1506 1508 1510 1513 1519 1520 1521 1525 1525 1528 1531 1533 1536 1539 1544 1548 1552 1554 1556 1557 1558 1560 1562 1563 1564 1566 1567 1570 1572 1575 1577 1579 1582 1583 1585 1586 1587 1588 1588 1589 1589 1590 1591 1591 1592 1592 1592 1593
1504 1508 1512 1515 1517 1519 1521 1526 1526 1525 1529 1531 1535 1537 1540 1544 1548 1552 1553 1556 1558 1559 1561 1563 1565 1567 1568 1569 1571 1573 1576 1578 1581 1583 1584 1586 1587 1589 1589 1589 1591 1591 1592 1592 1593 1593 1593 1593 1594
1505 1513 1514 1519 1521 1523 1522 1528 1526 1524 1530 1530 1535 1539 1541 1544 1549 1550 1552 1555 1558 1560 1563 1564 1566 1568 1570 1571 1572 1574 1578 1580 1583 1585 1586 1588 1589 1589 1590 1591 1592 1593 1594 1594 1594 1595 1595 1595 1596
1509 1510 1522 1524 1522 1524 1524 1528 1526 1528 1525 1530 1534 1539 1541 1543 1547 1551 1554 1557 1558 1561 1563 1565 1566 1569 1571 1573 1575 1577 1580 1582 1584 1586 1588 1588 1590 1590 1592 1593 1593 1594 1595 1596 1595 1595 1596 1596 1597
1520 1526 1523 1527 1526 1524 1523 1528 1527 1525 1525 1528 1532 1536 1540 1545 1550 1552 1554 1556 1558 1560 1563 1566 1567 1570 1573 1575 1578 1580 1582 1584 1586 1588 1588 1589 1590 1591 1593 1595 1596 1596 1597 1596 1596 1596 1598 1599 1599
1524 1525 1522 1530 1527 1527 1528 1531 1528 1525 1528 1530 1533 1534 1539 1543 1545 1549 1553 1555 1558 1560 1563 1566 1569 1571 1574 1577 1579 1581 1583 1585 1587 1588 1589 1590 1591 1593 1594 1595 1596 1597 1598 1598 1598 1598 1598 1599 1600
1511 1516 1523 1528 1528 1528 1530 1530 1527 1530 1531 1529 1531 1533 1536 1539 1544 1548 1552 1556 1559 1561 1563 1566 1568 1571 1573 1575 1579 1581 1583 1586 1587 1588 1589 1590 1592 1594 1595 1595 1597 1598 1599 1599 1599 1599 1599 1600 1601
1510 1518 1526 1527 1530 1531 1533 1532 1528 1531 1530 1527 1530 1531 1532 1538 1543 1548 1552 1554 1556 1559 1562 1565 1568 1571 1574 1577 1579 1582 1585 1588 1588 1588 1590 1591 1593 1594 1595 1596 1597 1599 1600 1600 1600 1600 1600 1601 1601
1512 1518 1520 1526 1530 1531 1532 1536 1533 1530 1531 1529 1529 1530 1532 1532 1538 1544 1550 1552 1555 1559 1561 1564 1567 1571 1574 1577 1579 1582 1585 1588 1588 1589 1590 1592 1593 1595 1596 1597 1598 1599 1600 1600 1601 1601 1601 1601 1602
1521 1506 1513 1517 1528 1538 1531 1542 1529 1528 1526 1527 1527 1527 1529 1531 1535 1540 1546 1550 1553 1557 1562 1564 1567 1570 1573 1576 1579 1581 1585 1586 1588 1589 1591 1592 1593 1595 1597 1597 1597 1599 1599 1600 1601 1602 1602 1601 1602
1510 1507 1514 1517 1528 1530 1535 1541 1520 1524 1527 1520 1522 1525 1526 1528 1534 1538 1542 1546 1551 1556 1559 1563 1566 1569 1572 1575 1578 1581 1584 1587 1588 1589 1591 1592 1594 1595 1596 1597 1598 1598 1599 1600 1601 1602 1602 1603 1602
1502 1514 1520 1523 1527 1547 1528 1534 1522 1522 1513 1516 1519 1522 1525 1525 1532 1537 1540 1546 1551 1555 1559 1562 1564 1567 1571 1574 1577 1579 1582 1586 1588 1589 1589 1591 1592 1593 1595 1596 1597 1598 1599 1600 1601 1602 1603 1603 1602
1503 1519 1540 1542 1547 1548 1527 1532 1514 1500 1501 1504 1512 1517 1522 1524 1529 1536 1540 1545 1549 1553 1556 1559 1563 1565 1568 1572 1575 1577 1580 1583 1586 1588 1589 1589 1591 1591 1593 1595 1597 1597 1598 1599 1600 1601 1602 1602 1602
1504 1509 1524 1545 1544 1531 1526 1525 1501 1482 1487 1489 1497 1506 1517 1521 1524 1530 1535 1540 1544 1548 1553 1556 1560 1563 1566 1569 1572 1575 1577 1580 1582 1585 1587 1588 1589 1590 1591 1593 1595 1596 1597 1598 1599 1600 1600 1601 1601
1502 1511 1500 1524 1529 1535 1522 1504 1485 1479 1483 1489 1490 1497 1506 1516 1519 1524 1532 1536 1541 1546 1549 1553 1556 1560 1564 1566 1569 1572 1575 1577 1579 1582 1584 1586 1587 1588 1590 1591 1593 1595 1595 1596 1597 1598 1598 1599 1600
1486 1488 1515 1520 1536 1540 1521 1516 1504 1484 1488 1487 1487 1489 1494 1508 1515 1521 1527 1533 1537 1541 1546 1551 1555 1557 1560 1564 1567 1570 1573 1575 1577 1580 1582 1584 1586 1587 1588 1589 1591 1592 1593 1594 1595 1596 1596 1597 1598
1491 1496 1504 1508 1520 1531 1527 1513 1482 1478 1479 1481 1483 1487 1491 1499 1508 1518 1524 1530 1534 1539 1543 1547 1551 1554 1557 1561 1564 1566 1570 1572 1574 1576 1579 1581 1582 1584 1585 1586 1587 1589 1590 1591 1592 1594 1595 1595 1596
1478 1488 1496 1515 1513 1520 1513 1506 1483 1476 1475 1478 1482 1488 1491 1497 1505 1515 1522 1525 1530 1535 1539 1542 1547 1551 1554 1557 1560 1563 1567 1570 1572 1574 1576 1578 1579 1581 1582 1583 1584 1586 1587 1588 1589 1591 1592 1593 1594